Cherry Point, NC

3:46 PM EDT on April 25, 2017 (GMT -0400)
Cherry Point Marine Corps Air Station

Weather History for KNKT - March, 2013

Change the Weather History Date:

Tuesday, March 12, 2013

  Actual Average Record
Temperature  
Mean Temperature 62 °F -  
Max Temperature 68 °F 61 °F 79 °F (2016)
Min Temperature 55 °F 41 °F 26 °F (1998)
Degree Days  
Heating Degree Days 4    
Growing Degree Days 12 (Base 50)    
Moisture  
Dew Point 58 °F    
Average Humidity 87    
Maximum Humidity 94    
Minimum Humidity 70    
Precipitation  
Precipitation 0.75 in - - ()
Sea Level Pressure  
Sea Level Pressure 29.88 in    
Wind  
Wind Speed 9 mph ()    
Max Wind Speed 14 mph    
Max Gust Speed 22 mph    
Visibility 6.5 miles    
Events Rain    
Averages and records for this station are not official NWS values.
T = Trace of Precipitation, MM = Missing Value Source: Averaged Metar Reports

Daily Weather History Graph

Daily Weather History Graph

Search for Another Location

Airport or City:

Trip Planner

Search our weather history database for the weather conditions in past years. The results will help you decide how hot, cold, wet, or windy it might be!

Date:

Astronomy

Mar. 12, 2013 Rise Set
Actual Time 7:21 AM EDT 7:12 PM EDT
Civil Twilight 6:56 AM EDT 7:38 PM EDT
Nautical Twilight 6:27 AM EDT 8:07 PM EDT
Astronomical Twilight 5:58 AM EDT 8:36 PM EDT
Moon 7:30 AM EDT (3/12) 8:20 PM EDT (3/12)
Length of Visible Light 12h 41m
Length of Day
11h 50m
New Moon, 1% of the Moon is Illuminated
Mar 12
New Moon
Mar 19
First Quarter
Mar 27
Full
Apr 3
Last Quarter
Apr 10
New

Hourly Weather History & Observations

Time (EDT) Temp. Dew Point Humidity Pressure Visibility Wind Dir Wind Speed Gust Speed Precip Events Conditions
12:54 AM 64.0 °F 54.0 °F 70% 29.99 in 10.0 mi SSE 11.5 mph 19.6 mph N/A   Mostly Cloudy
1:54 AM 64.0 °F 54.0 °F 70% 29.98 in 10.0 mi South 10.4 mph - N/A   Overcast
2:54 AM 64.0 °F 54.0 °F 70% 29.96 in 10.0 mi South 11.5 mph 19.6 mph N/A   Overcast
3:54 AM 64.0 °F 55.0 °F 73% 29.94 in 10.0 mi South 10.4 mph 19.6 mph 0.00 in   Overcast
4:54 AM 63.0 °F 55.9 °F 78% 29.92 in 10.0 mi SSE 12.7 mph 20.7 mph 0.00 in   Overcast
5:40 AM 60.8 °F 57.2 °F 88% 29.94 in 2.0 mi South 10.4 mph - 0.08 in Rain Rain
5:54 AM 61.0 °F 57.9 °F 90% 29.93 in 1.8 mi South 10.4 mph 21.9 mph 0.14 in Rain Heavy Rain
6:01 AM 60.8 °F 59.0 °F 94% 29.94 in 1.5 mi SSW 9.2 mph 21.9 mph 0.06 in Rain Heavy Rain
7:54 AM 62.1 °F 59.0 °F 90% 29.91 in 6.0 mi South 9.2 mph 18.4 mph 0.00 in   Overcast
8:26 AM 62.6 °F 60.8 °F 94% 29.92 in 5.0 mi SSE 13.8 mph 19.6 mph 0.01 in Rain Light Rain
8:54 AM 63.0 °F 60.1 °F 90% 29.91 in 5.0 mi South 9.2 mph - 0.02 in Rain Light Rain
9:29 AM 62.6 °F 60.8 °F 94% 29.92 in 4.0 mi South 10.4 mph 18.4 mph 0.03 in Rain Light Rain
10:23 AM 62.6 °F 60.8 °F 94% 29.92 in 1.5 mi SSW 8.1 mph - 0.09 in Rain Heavy Rain
10:28 AM 62.6 °F 60.8 °F 94% 29.92 in 1.8 mi SSW 5.8 mph - 0.10 in Rain Light Rain
10:36 AM 62.6 °F 60.8 °F 94% 29.92 in 2.5 mi South 9.2 mph - 0.12 in Rain Rain
10:54 AM 63.0 °F 61.0 °F 93% 29.90 in 1.8 mi SSW 9.2 mph 17.3 mph 0.22 in Rain Heavy Rain
11:22 AM 64.4 °F 60.8 °F 88% 29.91 in 1.5 mi SSW 6.9 mph - 0.17 in Rain Heavy Rain
11:54 AM 64.0 °F 61.0 °F 90% 29.90 in 6.0 mi SSW 11.5 mph 18.4 mph 0.33 in Rain Light Rain
12:22 PM 62.6 °F 60.8 °F 94% 29.90 in 10.0 mi South 11.5 mph - 0.01 in Rain Light Rain
12:54 PM 63.0 °F 60.1 °F 90% 29.89 in 10.0 mi SSW 10.4 mph 18.4 mph 0.01 in   Overcast
1:54 PM 64.0 °F 61.0 °F 90% 29.86 in 5.0 mi SW 10.4 mph 18.4 mph 0.01 in Rain Light Rain
2:45 PM 64.4 °F 60.8 °F 88% 29.84 in 7.0 mi SSW 12.7 mph - 0.02 in   Overcast
2:54 PM 64.0 °F 61.0 °F 90% 29.82 in 6.0 mi SSW 8.1 mph - 0.02 in Rain Light Rain
3:54 PM 66.0 °F 61.0 °F 84% 29.80 in - SW 10.4 mph - 0.00 in   Mostly Cloudy
4:54 PM 68.0 °F 60.1 °F 76% 29.78 in 10.0 mi SSW 11.5 mph - N/A   Mostly Cloudy
5:54 PM 64.9 °F 59.0 °F 81% 29.78 in 9.0 mi South 8.1 mph - N/A   Mostly Cloudy
6:22 PM 64.4 °F 59.0 °F 83% 29.79 in 9.0 mi South 6.9 mph - N/A   Mostly Cloudy
6:34 PM 64.4 °F 57.2 °F 77% 29.79 in 9.0 mi South 6.9 mph - N/A   Scattered Clouds
6:54 PM 63.0 °F 57.9 °F 84% 29.79 in 8.0 mi SSW 4.6 mph - N/A   Mostly Cloudy
7:54 PM 60.1 °F 55.9 °F 86% 29.81 in 8.0 mi Calm Calm - N/A   Scattered Clouds
8:54 PM 57.9 °F 55.9 °F 93% 29.82 in 8.0 mi Calm Calm - N/A   Scattered Clouds
9:54 PM 55.9 °F 54.0 °F 93% 29.82 in 6.0 mi Calm Calm - N/A   Partly Cloudy
10:54 PM 57.9 °F 55.0 °F 90% 29.86 in 8.0 mi NW 3.5 mph - N/A   Mostly Cloudy
11:54 PM 57.9 °F 55.0 °F 90% 29.88 in 10.0 mi NNW 5.8 mph - N/A   Partly Cloudy